N358R NTAA-NTTB

Flight info

Callsign N358R
Flight time 0h 42m
Altitude 20000
Route VAITE4W VAITE DCT HHN RU1B
Aircraft E190/M-SDE1E2E3FGHIJ3J4J7P2RWXY/LB1D1G1

Departure

Time 2026-05-08 07:09
Airport Fa'a'ā International Airport (NTAA)

Arrival

Time 2026-05-08 07:51
Airport Bora Bora Airport (NTTB)
Time Latitude Longitude Altitude Speed Heading
2026-05-08 07:02 -17.55965 -149.61279 15 ft 0 kts 54°
2026-05-08 07:03 -17.55964 -149.61276 15 ft 1 kts 54°
2026-05-08 07:03 -17.55946 -149.61252 15 ft 4 kts 54°
2026-05-08 07:04 -17.55941 -149.61244 15 ft 5 kts 54°
2026-05-08 07:04 -17.55926 -149.61221 15 ft 6 kts 55°
2026-05-08 07:04 -17.55905 -149.61189 15 ft 8 kts 55°
2026-05-08 07:04 -17.55844 -149.61119 15 ft 11 kts 55°
2026-05-08 07:05 -17.55781 -149.61069 15 ft 13 kts 354°
2026-05-08 07:05 -17.55697 -149.61121 15 ft 15 kts 325°
2026-05-08 07:05 -17.55620 -149.61079 15 ft 14 kts 54°
2026-05-08 07:05 -17.55553 -149.60980 15 ft 18 kts 56°
2026-05-08 07:06 -17.55399 -149.60757 14 ft 20 kts 54°
2026-05-08 07:06 -17.54525 -149.59471 14 ft 23 kts 81°
2026-05-08 07:06 -17.54488 -149.59427 14 ft 9 kts 298°
2026-05-08 07:06 -17.54508 -149.59471 14 ft 0 kts 232°
2026-05-08 07:07 -17.54512 -149.59477 14 ft 1 kts 232°
2026-05-08 07:07 -17.54519 -149.59486 14 ft 2 kts 232°
2026-05-08 07:07 -17.54536 -149.59508 14 ft 4 kts 232°
2026-05-08 07:07 -17.54627 -149.59636 14 ft 57 kts 232°
2026-05-08 07:08 -17.54733 -149.59786 14 ft 85 kts 235°
2026-05-08 07:08 -17.55087 -149.60301 16 ft 137 kts 232°
2026-05-08 07:09 -17.55740 -149.61252 150 ft 183 kts 233°
2026-05-08 07:09 -17.56515 -149.62384 680 ft 186 kts 232°
2026-05-08 07:09 -17.57232 -149.63570 1142 ft 208 kts 250°
2026-05-08 07:09 -17.57199 -149.65193 1611 ft 248 kts 293°
2026-05-08 07:10 -17.56049 -149.66635 2233 ft 270 kts 332°
2026-05-08 07:10 -17.54270 -149.67123 2959 ft 267 kts
2026-05-08 07:10 -17.52405 -149.67079 3746 ft 273 kts
2026-05-08 07:10 -17.51136 -149.67184 4278 ft 272 kts 357°
2026-05-08 07:11 -17.48619 -149.67566 5336 ft 280 kts 354°
2026-05-08 07:11 -17.47343 -149.67804 5876 ft 280 kts 353°
2026-05-08 07:11 -17.44802 -149.68402 6951 ft 289 kts 339°
2026-05-08 07:11 -17.43662 -149.69136 7502 ft 292 kts 325°
2026-05-08 07:12 -17.42035 -149.70454 8359 ft 296 kts 324°
2026-05-08 07:12 -17.40393 -149.71790 9216 ft 301 kts 323°
2026-05-08 07:12 -17.38734 -149.73138 10094 ft 306 kts 323°
2026-05-08 07:12 -17.36478 -149.74971 11273 ft 312 kts 323°
2026-05-08 07:13 -17.35337 -149.75897 11869 ft 314 kts 323°
2026-05-08 07:13 -17.33609 -149.77301 12766 ft 317 kts 322°
2026-05-08 07:13 -17.31867 -149.78716 13659 ft 319 kts 322°
2026-05-08 07:13 -17.29509 -149.80629 14742 ft 326 kts 322°
2026-05-08 07:14 -17.27697 -149.82100 15388 ft 336 kts 322°
2026-05-08 07:14 -17.25803 -149.83637 15800 ft 354 kts 322°
2026-05-08 07:14 -17.24487 -149.84705 16137 ft 362 kts 322°
2026-05-08 07:14 -17.22480 -149.86331 16793 ft 370 kts 321°
2026-05-08 07:15 -17.19843 -149.88467 17818 ft 372 kts 321°
2026-05-08 07:15 -17.17822 -149.90106 18603 ft 374 kts 321°
2026-05-08 07:15 -17.16447 -149.91220 19124 ft 375 kts 321°
2026-05-08 07:15 -17.14376 -149.92897 19823 ft 378 kts 321°
2026-05-08 07:16 -17.11563 -149.95175 19990 ft 384 kts 321°
2026-05-08 07:16 -17.09466 -149.96925 19996 ft 382 kts 315°
2026-05-08 07:16 -17.07983 -149.99184 20021 ft 378 kts 293°
2026-05-08 07:16 -17.07308 -150.00851 20025 ft 378 kts 291°
2026-05-08 07:17 -17.05979 -150.04248 20009 ft 378 kts 291°
2026-05-08 07:17 -17.04989 -150.06773 20008 ft 377 kts 291°
2026-05-08 07:17 -17.04323 -150.08470 20009 ft 378 kts 291°
2026-05-08 07:17 -17.03332 -150.10989 20008 ft 377 kts 291°
2026-05-08 07:18 -17.02327 -150.13542 20007 ft 377 kts 291°
2026-05-08 07:18 -17.01330 -150.16067 20008 ft 377 kts 291°
2026-05-08 07:18 -17.00326 -150.18607 20007 ft 378 kts 291°
2026-05-08 07:18 -16.98982 -150.22000 20009 ft 378 kts 291°
2026-05-08 07:19 -16.98320 -150.23671 20009 ft 378 kts 291°
2026-05-08 07:19 -16.96981 -150.27045 20009 ft 378 kts 291°
2026-05-08 07:19 -16.95966 -150.29596 20009 ft 378 kts 291°
2026-05-08 07:19 -16.94959 -150.32123 20010 ft 378 kts 291°
2026-05-08 07:20 -16.91366 -150.41118 20020 ft 378 kts 291°
2026-05-08 07:20 -16.76176 -150.78964 20011 ft 379 kts 292°
2026-05-08 07:20 -16.75482 -150.80685 20007 ft 378 kts 292°
2026-05-08 07:20 -16.74164 -150.83946 19553 ft 362 kts 292°
2026-05-08 07:21 -16.73182 -150.86371 18779 ft 364 kts 292°
2026-05-08 07:21 -16.71205 -150.91240 17084 ft 366 kts 292°
2026-05-08 07:21 -16.70545 -150.92860 16596 ft 365 kts 292°
2026-05-08 07:21 -16.69226 -150.96101 15941 ft 362 kts 292°
2026-05-08 07:22 -16.68572 -150.97702 15691 ft 360 kts 292°
2026-05-08 07:22 -16.67592 -151.00101 15311 ft 357 kts 292°
2026-05-08 07:22 -16.66610 -151.02499 14928 ft 355 kts 293°
2026-05-08 07:22 -16.65649 -151.04842 14557 ft 354 kts 293°
2026-05-08 07:23 -16.64679 -151.07204 14183 ft 351 kts 293°
2026-05-08 07:23 -16.63403 -151.10303 13684 ft 348 kts 293°
2026-05-08 07:23 -16.62440 -151.12637 13304 ft 343 kts 293°
2026-05-08 07:23 -16.61515 -151.14877 12770 ft 337 kts 294°
2026-05-08 07:24 -16.60644 -151.16985 12144 ft 336 kts 294°
2026-05-08 07:24 -16.60415 -151.17535 11967 ft 336 kts 294°
2026-05-08 07:24 -16.59687 -151.19844 11293 ft 335 kts 281°
2026-05-08 07:24 -16.59489 -151.21451 10918 ft 332 kts 272°
2026-05-08 07:25 -16.59645 -151.23816 10475 ft 322 kts 258°
2026-05-08 07:25 -16.60622 -151.26662 9933 ft 309 kts 239°
2026-05-08 07:25 -16.63455 -151.29837 8990 ft 295 kts 210°
2026-05-08 07:26 -16.65304 -151.30748 8463 ft 291 kts 195°
2026-05-08 07:26 -16.67221 -151.31432 8078 ft 291 kts 204°
2026-05-08 07:26 -16.68916 -151.32588 8037 ft 294 kts 219°
2026-05-08 07:26 -16.69882 -151.33618 8029 ft 296 kts 229°
2026-05-08 07:27 -16.71240 -151.36108 8024 ft 299 kts 250°
2026-05-08 07:27 -16.71695 -151.38242 8023 ft 301 kts 265°
2026-05-08 07:27 -16.71623 -151.40355 8008 ft 284 kts 280°
2026-05-08 07:27 -16.71293 -151.41658 8001 ft 270 kts 291°
2026-05-08 07:28 -16.70064 -151.43779 7971 ft 248 kts 315°
2026-05-08 07:28 -16.69217 -151.44568 7864 ft 248 kts 327°
2026-05-08 07:28 -16.67261 -151.45836 7692 ft 248 kts 331°
2026-05-08 07:28 -16.66256 -151.46471 7597 ft 248 kts 331°
2026-05-08 07:29 -16.64291 -151.47714 7403 ft 247 kts 331°
2026-05-08 07:29 -16.62806 -151.48653 7259 ft 247 kts 331°
2026-05-08 07:29 -16.61382 -151.49644 7116 ft 247 kts 322°
2026-05-08 07:29 -16.60172 -151.50934 6924 ft 252 kts 311°
2026-05-08 07:30 -16.59108 -151.52443 6321 ft 263 kts 305°
2026-05-08 07:30 -16.58448 -151.53514 5909 ft 267 kts 303°
2026-05-08 07:30 -16.57500 -151.55164 5301 ft 268 kts 302°
2026-05-08 07:30 -16.56579 -151.56827 5047 ft 251 kts 304°
2026-05-08 07:31 -16.55338 -151.58708 4974 ft 224 kts 307°
2026-05-08 07:31 -16.54437 -151.60060 4492 ft 228 kts 307°
2026-05-08 07:31 -16.53838 -151.60962 4228 ft 226 kts 307°
2026-05-08 07:31 -16.52957 -151.62288 3863 ft 222 kts 307°
2026-05-08 07:32 -16.51797 -151.64035 3312 ft 218 kts 307°
2026-05-08 07:32 -16.51215 -151.64909 3048 ft 219 kts 307°
2026-05-08 07:32 -16.50350 -151.66213 2683 ft 214 kts 307°
2026-05-08 07:32 -16.49521 -151.67461 2279 ft 207 kts 307°
2026-05-08 07:33 -16.48728 -151.68671 1779 ft 199 kts 305°
2026-05-08 07:33 -16.48006 -151.69853 1331 ft 181 kts 304°
2026-05-08 07:33 -16.47489 -151.70723 1113 ft 162 kts 303°
2026-05-08 07:33 -16.47121 -151.71339 854 ft 157 kts 306°
2026-05-08 07:34 -16.46722 -151.71957 638 ft 149 kts 306°
2026-05-08 07:34 -16.46154 -151.72774 433 ft 129 kts 313°
2026-05-08 07:34 -16.45570 -151.73512 241 ft 153 kts 309°
2026-05-08 07:34 -16.44914 -151.74457 602 ft 169 kts 308°
2026-05-08 07:35 -16.44751 -151.74692 567 ft 183 kts 310°
2026-05-08 07:35 -16.43202 -151.75902 769 ft 218 kts 340°
2026-05-08 07:35 -16.41904 -151.76204 1227 ft 165 kts
2026-05-08 07:35 -16.40976 -151.75989 1538 ft 114 kts 38°
2026-05-08 07:36 -16.40544 -151.75594 1476 ft 136 kts 59°
2026-05-08 07:36 -16.40328 -151.75250 1508 ft 140 kts 62°
2026-05-08 07:36 -16.40299 -151.75201 1511 ft 143 kts 62°
2026-05-08 07:36 -16.39776 -151.74245 1881 ft 162 kts 62°
2026-05-08 07:37 -16.39158 -151.73227 2490 ft 171 kts 59°
2026-05-08 07:37 -16.38255 -151.71864 3404 ft 177 kts 57°
2026-05-08 07:37 -16.37480 -151.70877 4110 ft 182 kts 44°
2026-05-08 07:37 -16.36371 -151.70227 4827 ft 184 kts 21°
2026-05-08 07:38 -16.35526 -151.70077 5274 ft 190 kts
2026-05-08 07:38 -16.33875 -151.69745 5637 ft 172 kts 31°
2026-05-08 07:38 -16.33237 -151.69301 5537 ft 163 kts 47°
2026-05-08 07:38 -16.32508 -151.67993 5169 ft 159 kts 81°
2026-05-08 07:39 -16.32556 -151.66878 5019 ft 149 kts 108°
2026-05-08 07:39 -16.32865 -151.66261 4987 ft 141 kts 126°
2026-05-08 07:39 -16.33637 -151.65253 4989 ft 138 kts 126°
2026-05-08 07:39 -16.34076 -151.64706 5048 ft 156 kts 128°
2026-05-08 07:40 -16.34786 -151.63924 5291 ft 139 kts 130°
2026-05-08 07:40 -16.35489 -151.63184 5177 ft 150 kts 131°
2026-05-08 07:40 -16.36266 -151.62393 5158 ft 164 kts 132°
2026-05-08 07:40 -16.36950 -151.61713 5132 ft 175 kts 133°
2026-05-08 07:41 -16.37773 -151.60910 5083 ft 187 kts 133°
2026-05-08 07:41 -16.38756 -151.59963 5034 ft 198 kts 134°
2026-05-08 07:42 -16.39803 -151.58963 5032 ft 207 kts 134°
2026-05-08 07:42 -16.40518 -151.58283 5028 ft 212 kts 134°
2026-05-08 07:42 -16.42008 -151.56869 5026 ft 220 kts 135°
2026-05-08 07:42 -16.43166 -151.55774 5024 ft 226 kts 135°
2026-05-08 07:43 -16.44342 -151.54663 5009 ft 221 kts 135°
2026-05-08 07:43 -16.45445 -151.53622 4983 ft 205 kts 135°
2026-05-08 07:43 -16.46132 -151.52974 4971 ft 194 kts 135°
2026-05-08 07:43 -16.47649 -151.52124 4879 ft 180 kts 164°
2026-05-08 07:44 -16.48730 -151.52086 4742 ft 178 kts 184°
2026-05-08 07:44 -16.49994 -151.52553 4491 ft 179 kts 203°
2026-05-08 07:44 -16.50729 -151.52962 4318 ft 179 kts 205°
2026-05-08 07:45 -16.52175 -151.53845 3956 ft 180 kts 208°
2026-05-08 07:45 -16.52880 -151.54301 3780 ft 180 kts 208°
2026-05-08 07:45 -16.53939 -151.55019 3514 ft 180 kts 210°
2026-05-08 07:45 -16.54928 -151.55797 3324 ft 177 kts 224°
2026-05-08 07:46 -16.55589 -151.56911 3076 ft 183 kts 251°
2026-05-08 07:46 -16.55741 -151.58205 3026 ft 176 kts 278°
2026-05-08 07:46 -16.55376 -151.59363 3032 ft 163 kts 306°
2026-05-08 07:46 -16.54667 -151.60239 3078 ft 159 kts 315°
2026-05-08 07:47 -16.53935 -151.61140 2927 ft 166 kts 312°
2026-05-08 07:47 -16.53218 -151.62089 2674 ft 166 kts 310°
2026-05-08 07:47 -16.52524 -151.63052 2419 ft 167 kts 309°
2026-05-08 07:47 -16.51843 -151.64026 2172 ft 166 kts 308°
2026-05-08 07:48 -16.51176 -151.64999 1971 ft 163 kts 308°
2026-05-08 07:48 -16.50543 -151.65935 1745 ft 151 kts 308°
2026-05-08 07:48 -16.49790 -151.67059 1443 ft 137 kts 308°
2026-05-08 07:48 -16.49437 -151.67612 1237 ft 135 kts 306°
2026-05-08 07:49 -16.48919 -151.68419 1026 ft 136 kts 306°
2026-05-08 07:49 -16.48241 -151.69550 917 ft 136 kts 304°
2026-05-08 07:49 -16.47696 -151.70373 893 ft 141 kts 311°
2026-05-08 07:49 -16.47119 -151.71193 802 ft 139 kts 306°
2026-05-08 07:50 -16.46877 -151.71579 726 ft 137 kts 306°
2026-05-08 07:50 -16.46526 -151.72121 642 ft 132 kts 310°
2026-05-08 07:50 -16.45967 -151.72836 443 ft 132 kts 310°
2026-05-08 07:50 -16.45853 -151.72989 411 ft 131 kts 310°
2026-05-08 07:51 -16.45631 -151.73296 345 ft 130 kts 308°
2026-05-08 07:51 -16.44929 -151.74379 140 ft 143 kts 306°
2026-05-08 07:51 -16.44565 -151.74936 74 ft 128 kts 306°
2026-05-08 07:51 -16.44180 -151.75508 72 ft 37 kts 304°
2026-05-08 07:52 -16.44056 -151.75668 71 ft 3 kts 338°
2026-05-08 07:52 -16.44065 -151.75676 71 ft 6 kts 145°
2026-05-08 07:52 -16.44077 -151.75664 71 ft 8 kts 132°
2026-05-08 07:52 -16.44330 -151.75285 73 ft 15 kts 130°
2026-05-08 07:53 -16.44443 -151.75308 69 ft 24 kts 213°
2026-05-08 07:53 -16.44553 -151.75424 66 ft 3 kts 230°
2026-05-08 07:53 -16.44554 -151.75424 66 ft 0 kts 219°